• In Deutschland
  • Länderverzeichnis
  • Für 7 Tage
  • Wassertemperatur
  • Satellitenkarten
  • Wetterkarte
  • Widgets
  • user-avatar
    Anmelden

    Stündliche Wetter Ondjiwa

    Heute, 27 Mai, Sonntag

    Zeit Temperatur Niederschläge Wind Luftdruck Luftfeuchtigkeit
    00:00 +18°C° 0 mm 2 m/S 669 mmHg 45%
    01:00 +17°C° 0 mm 2 m/S 669 mmHg 47%
    02:00 +17°C° 0 mm 2 m/S 669 mmHg 50%
    03:00 +16°C° 0 mm 2 m/S 669 mmHg 53%
    04:00 +16°C° 0 mm 2 m/S 669 mmHg 56%
    05:00 +16°C° 0 mm 2 m/S 669 mmHg 58%
    06:00 +16°C° 0 mm 2 m/S 669 mmHg 59%
    07:00 +16°C° 0 mm 2 m/S 670 mmHg 61%
    08:00 +19°C° 0 mm 3 m/S 671 mmHg 51%
    09:00 +23°C° 0 mm 4 m/S 671 mmHg 41%
    10:00 +27°C° 0 mm 4 m/S 672 mmHg 31%
    11:00 +28°C° 0 mm 4 m/S 672 mmHg 27%
    12:00 +30°C° 0 mm 4 m/S 671 mmHg 23%
    13:00 +32°C° 0 mm 4 m/S 671 mmHg 19%
    14:00 +32°C° 0 mm 4 m/S 671 mmHg 19%
    15:00 +30°C° 0 mm 3 m/S 670 mmHg 19%
    16:00 +30°C° 0 mm 3 m/S 670 mmHg 19%
    17:00 +28°C° 0 mm 3 m/S 670 mmHg 23%
    18:00 +25°C° 0 mm 2 m/S 670 mmHg 27%
    19:00 +23°C° 0 mm 2 m/S 669 mmHg 31%
    20:00 +21°C° 0 mm 2 m/S 670 mmHg 33%
    21:00 +20°C° 0 mm 2 m/S 670 mmHg 35%
    22:00 +19°C° 0 mm 2 m/S 670 mmHg 37%
    23:00 +19°C° 0 mm 2 m/S 670 mmHg 39%

    Morgen, 28 Mai, Montag

    Zeit Temperatur Niederschläge Wind Luftdruck Luftfeuchtigkeit
    00:00 +18°C° 0 mm 2 m/S 670 mmHg 42%
    01:00 +18°C° 0 mm 2 m/S 670 mmHg 44%
    02:00 +17°C° 0 mm 2 m/S 670 mmHg 47%
    03:00 +17°C° 0 mm 2 m/S 669 mmHg 51%
    04:00 +16°C° 0 mm 2 m/S 669 mmHg 54%
    05:00 +16°C° 0 mm 2 m/S 670 mmHg 55%
    06:00 +16°C° 0 mm 2 m/S 670 mmHg 57%
    07:00 +16°C° 0 mm 2 m/S 670 mmHg 58%
    08:00 +20°C° 0 mm 2 m/S 671 mmHg 48%
    09:00 +24°C° 0 mm 3 m/S 672 mmHg 38%
    10:00 +28°C° 0 mm 4 m/S 673 mmHg 28%
    11:00 +29°C° 0 mm 4 m/S 673 mmHg 25%
    12:00 +30°C° 0 mm 3 m/S 672 mmHg 23%
    13:00 +31°C° 0 mm 3 m/S 671 mmHg 20%
    14:00 +31°C° 0 mm 3 m/S 671 mmHg 20%
    15:00 +31°C° 0 mm 2 m/S 670 mmHg 20%
    16:00 +31°C° 0 mm 2 m/S 670 mmHg 20%
    17:00 +28°C° 0 mm 2 m/S 670 mmHg 24%
    18:00 +26°C° 0 mm 1 m/S 669 mmHg 28%
    19:00 +23°C° 0 mm 1 m/S 669 mmHg 32%
    20:00 +22°C° 0 mm 1 m/S 669 mmHg 33%
    21:00 +22°C° 0 mm 1 m/S 669 mmHg 35%
    22:00 +21°C° 0 mm 1 m/S 670 mmHg 37%
    23:00 +20°C° 0 mm 1 m/S 669 mmHg 39%

    übermorgen, 29 Mai, Dienstag

    Zeit Temperatur Niederschläge Wind Luftdruck Luftfeuchtigkeit
    00:00 +20°C° 0 mm 1 m/S 669 mmHg 40%
    01:00 +19°C° 0 mm 1 m/S 669 mmHg 42%
    02:00 +18°C° 0 mm 1 m/S 669 mmHg 44%
    03:00 +18°C° 0 mm 1 m/S 668 mmHg 45%
    04:00 +16°C° 0 mm 2 m/S 668 mmHg 47%
    05:00 +16°C° 0 mm 1 m/S 669 mmHg 49%
    06:00 +16°C° 0 mm 1 m/S 669 mmHg 52%
    07:00 +16°C° 0 mm 1 m/S 669 mmHg 54%
    08:00 +19°C° 0 mm 2 m/S 670 mmHg 47%
    09:00 +23°C° 0 mm 2 m/S 671 mmHg 41%
    10:00 +27°C° 0 mm 3 m/S 672 mmHg 34%
    11:00 +28°C° 0 mm 2 m/S 671 mmHg 30%
    12:00 +30°C° 0 mm 2 m/S 671 mmHg 26%
    13:00 +31°C° 0 mm 1 m/S 670 mmHg 21%
    14:00 +31°C° 0 mm 1 m/S 670 mmHg 21%
    15:00 +31°C° 0 mm 1 m/S 669 mmHg 21%
    16:00 +31°C° 0 mm 1 m/S 669 mmHg 20%
    17:00 +29°C° 0 mm 1 m/S 668 mmHg 24%
    18:00 +26°C° 0 mm 1 m/S 668 mmHg 28%
    19:00 +24°C° 0 mm 1 m/S 668 mmHg 32%
    20:00 +23°C° 0 mm 1 m/S 668 mmHg 34%
    21:00 +21°C° 0 mm 2 m/S 668 mmHg 36%
    22:00 +20°C° 0 mm 2 m/S 668 mmHg 37%
    23:00 +20°C° 0 mm 2 m/S 668 mmHg 39%

    30 Mai, Mittwoch

    Zeit Temperatur Niederschläge Wind Luftdruck Luftfeuchtigkeit
    00:00 +19°C° 0 mm 2 m/S 668 mmHg 40%
    01:00 +20°C° 0 mm 1 m/S 667 mmHg 41%
    02:00 +18°C° 0 mm 2 m/S 667 mmHg 43%
    03:00 +18°C° 0 mm 2 m/S 667 mmHg 44%
    04:00 +17°C° 0 mm 2 m/S 667 mmHg 45%
    05:00 +17°C° 0 mm 2 m/S 667 mmHg 47%
    06:00 +18°C° 0 mm 1 m/S 668 mmHg 49%
    07:00 +16°C° 0 mm 1 m/S 668 mmHg 50%
    08:00 +21°C° 0 mm 1 m/S 669 mmHg 43%
    09:00 +24°C° 0 mm 1 m/S 670 mmHg 36%
    10:00 +27°C° 0 mm 1 m/S 670 mmHg 29%
    11:00 +29°C° 0 mm 1 m/S 670 mmHg 26%
    12:00 +31°C° 0 mm 1 m/S 670 mmHg 23%
    13:00 +32°C° 0 mm 1 m/S 669 mmHg 21%
    14:00 +32°C° 0 mm 1 m/S 669 mmHg 20%
    15:00 +32°C° 0 mm 1 m/S 668 mmHg 20%
    16:00 +31°C° 0 mm 1 m/S 668 mmHg 20%
    17:00 +29°C° 0 mm 1 m/S 668 mmHg 23%
    18:00 +27°C° 0 mm 1 m/S 668 mmHg 27%
    19:00 +24°C° 0 mm 2 m/S 668 mmHg 30%
    20:00 +23°C° 0 mm 2 m/S 668 mmHg 32%
    21:00 +23°C° 0 mm 2 m/S 668 mmHg 33%
    22:00 +21°C° 0 mm 2 m/S 668 mmHg 35%
    23:00 +20°C° 0 mm 2 m/S 668 mmHg 36%

    31 Mai, Donnerstag

    Zeit Temperatur Niederschläge Wind Luftdruck Luftfeuchtigkeit
    00:00 +20°C° 0 mm 2 m/S 668 mmHg 37%
    01:00 +19°C° 0 mm 2 m/S 667 mmHg 38%
    02:00 +19°C° 0 mm 1 m/S 667 mmHg 41%
    03:00 +18°C° 0 mm 1 m/S 667 mmHg 43%
    04:00 +18°C° 0 mm 1 m/S 667 mmHg 46%
    05:00 +18°C° 0 mm 1 m/S 667 mmHg 46%
    06:00 +18°C° 0 mm 1 m/S 668 mmHg 46%
    07:00 +18°C° 0 mm 1 m/S 668 mmHg 46%
    08:00 +21°C° 0 mm 1 m/S 669 mmHg 39%
    09:00 +24°C° 0 mm 2 m/S 670 mmHg 32%
    10:00 +27°C° 0 mm 2 m/S 671 mmHg 26%
    11:00 +29°C° 0 mm 2 m/S 670 mmHg 23%
    12:00 +30°C° 0 mm 2 m/S 670 mmHg 21%
    13:00 +32°C° 0 mm 2 m/S 669 mmHg 19%
    14:00 +32°C° 0 mm 1 m/S 669 mmHg 19%
    15:00 +32°C° 0 mm 1 m/S 669 mmHg 18%
    16:00 +32°C° 0 mm 1 m/S 668 mmHg 18%
    17:00 +29°C° 0 mm 1 m/S 668 mmHg 21%
    18:00 +27°C° 0 mm 1 m/S 668 mmHg 25%
    19:00 +24°C° 0 mm 2 m/S 668 mmHg 28%
    20:00 +24°C° 0 mm 2 m/S 668 mmHg 29%
    21:00 +23°C° 0 mm 2 m/S 669 mmHg 31%
    22:00 +21°C° 0 mm 2 m/S 669 mmHg 33%
    23:00 +20°C° 0 mm 2 m/S 669 mmHg 33%

    1 Juni, Freitag

    Zeit Temperatur Niederschläge Wind Luftdruck Luftfeuchtigkeit
    00:00 +20°C° 0 mm 2 m/S 669 mmHg 34%
    01:00 +19°C° 0 mm 2 m/S 668 mmHg 35%
    02:00 +19°C° 0 mm 2 m/S 668 mmHg 36%
    03:00 +19°C° 0 mm 1 m/S 668 mmHg 37%
    04:00 +19°C° 0 mm 1 m/S 668 mmHg 38%
    05:00 +18°C° 0 mm 1 m/S 669 mmHg 39%
    06:00 +18°C° 0 mm 1 m/S 669 mmHg 40%
    07:00 +16°C° 0 mm 0 m/S 669 mmHg 42%
    08:00 +21°C° 0 mm 1 m/S 670 mmHg 35%
    09:00 +24°C° 0 mm 1 m/S 671 mmHg 28%
    10:00 +27°C° 0 mm 2 m/S 672 mmHg 21%
    11:00 +29°C° 0 mm 2 m/S 671 mmHg 20%
    12:00 +31°C° 0 mm 2 m/S 671 mmHg 18%
    13:00 +32°C° 0 mm 2 m/S 670 mmHg 16%
    14:00 +32°C° 0 mm 2 m/S 670 mmHg 16%
    15:00 +32°C° 0 mm 2 m/S 670 mmHg 16%
    16:00 +32°C° 0 mm 2 m/S 669 mmHg 15%
    17:00 +29°C° 0 mm 2 m/S 669 mmHg 18%
    18:00 +27°C° 0 mm 2 m/S 669 mmHg 21%
    19:00 +24°C° 0 mm 2 m/S 669 mmHg 24%
    20:00 +23°C° 0 mm 2 m/S 669 mmHg 25%
    21:00 +21°C° 0 mm 2 m/S 669 mmHg 25%
    22:00 +21°C° 0 mm 2 m/S 669 mmHg 26%
    23:00 +20°C° 0 mm 2 m/S 669 mmHg 26%
    Mehr zeigen